Moncks Corner, SC

7:31 AM EDT on July 26, 2017 (GMT -0400)
Moncks Corner

Weather History for KMKS - February, 2012

Change the Weather History Date:

Monday, February 27, 2012

  Actual Average (KCHS) Record (KCHS)
Temperature  
Mean Temperature 54 °F -  
Max Temperature 59 °F 63 °F 84 °F (1962)
Min Temperature 50 °F 40 °F 22 °F (1967)
Degree Days  
Heating Degree Days 10    
Growing Degree Days 4 (Base 50)    
Moisture  
Dew Point 51 °F    
Average Humidity 85    
Maximum Humidity 100    
Minimum Humidity 66    
Precipitation  
Precipitation 0.13 in - - ()
Sea Level Pressure  
Sea Level Pressure 30.37 in    
Wind  
Wind Speed 2 mph (NE)    
Max Wind Speed 7 mph    
Max Gust Speed -    
Visibility 6 miles    
Events Rain    
Averages and records for this station are not official NWS values.
T = Trace of Precipitation, MM = Missing Value Source: NWS Daily Summary

Daily Weather History Graph

Daily Weather History Graph

Search for Another Location

Airport or City:

Trip Planner

Search our weather history database for the weather conditions in past years. The results will help you decide how hot, cold, wet, or windy it might be!

Date:

Astronomy

Feb. 27, 2012 Rise Set
Actual Time 6:51 AM EST 6:15 PM EST
Civil Twilight 6:26 AM EST 6:40 PM EST
Nautical Twilight 5:57 AM EST 7:08 PM EST
Astronomical Twilight 5:28 AM EST 7:37 PM EST
Moon 9:39 AM EST (2/27) 11:45 PM EST (2/27)
Length of Visible Light 12h 13m
Length of Day
11h 23m
Waxing Crescent, 29% of the Moon is Illuminated
Feb 27
Waxing Crescent
Feb 29
First Quarter
Mar 8
Full
Mar 14
Last Quarter
Mar 22
New

Hourly Weather History & Observations

Time (EST) Temp. Dew Point Humidity Pressure Visibility Wind Dir Wind Speed Gust Speed Precip Events Conditions
12:15 AM 50.0 °F 39.2 °F 66% 30.43 in 10.0 mi Calm Calm - N/A   Clear
12:35 AM 50.0 °F 41.0 °F 71% 30.42 in 10.0 mi Calm Calm - N/A   Scattered Clouds
12:55 AM 50.0 °F 41.0 °F 71% 30.42 in 10.0 mi Calm Calm - N/A   Mostly Cloudy
1:15 AM 50.0 °F 41.0 °F 71% 30.42 in 10.0 mi Calm Calm - N/A   Scattered Clouds
1:35 AM 50.0 °F 41.0 °F 71% 30.41 in 10.0 mi NE 4.6 mph - N/A   Clear
1:55 AM 51.8 °F 41.0 °F 67% 30.41 in 10.0 mi NE 3.5 mph - N/A   Clear
2:15 AM 51.8 °F 41.0 °F 67% 30.40 in 10.0 mi NE 3.5 mph - N/A   Clear
2:35 AM 51.8 °F 42.8 °F 71% 30.39 in 10.0 mi ENE 3.5 mph - N/A   Scattered Clouds
2:55 AM 51.8 °F 42.8 °F 71% 30.38 in 10.0 mi ENE 3.5 mph - N/A   Scattered Clouds
3:15 AM 51.8 °F 42.8 °F 71% 30.37 in 10.0 mi ENE 3.5 mph - N/A   Clear
3:35 AM 53.6 °F 44.6 °F 72% 30.37 in 10.0 mi ENE 3.5 mph - N/A   Scattered Clouds
3:55 AM 53.6 °F 44.6 °F 72% 30.37 in 10.0 mi East 3.5 mph - N/A   Mostly Cloudy
4:15 AM 53.6 °F 44.6 °F 72% 30.37 in 10.0 mi East 3.5 mph - N/A   Overcast
4:35 AM 55.4 °F 46.4 °F 72% 30.37 in 10.0 mi ENE 3.5 mph - N/A   Overcast
4:55 AM 55.4 °F 46.4 °F 72% 30.37 in 10.0 mi ENE 3.5 mph - N/A   Overcast
5:15 AM 55.4 °F 46.4 °F 72% 30.37 in 10.0 mi East 4.6 mph - N/A   Overcast
5:35 AM 55.4 °F 46.4 °F 72% 30.37 in 10.0 mi Calm Calm - N/A   Overcast
5:55 AM 55.4 °F 46.4 °F 72% 30.37 in 10.0 mi Calm Calm - N/A   Overcast
6:15 AM 55.4 °F 48.2 °F 77% 30.37 in 10.0 mi Calm Calm - N/A   Overcast
6:35 AM 55.4 °F 48.2 °F 77% 30.37 in 10.0 mi ENE 3.5 mph - N/A   Overcast
6:55 AM 55.4 °F 48.2 °F 77% 30.37 in 7.0 mi ENE 4.6 mph - N/A   Overcast
7:15 AM 55.4 °F 48.2 °F 77% 30.38 in 7.0 mi ENE 3.5 mph - N/A   Overcast
7:35 AM 55.4 °F 48.2 °F 77% 30.38 in 7.0 mi NE 3.5 mph - N/A   Overcast
7:55 AM 55.4 °F 48.2 °F 77% 30.38 in 7.0 mi ENE 3.5 mph - N/A   Overcast
8:15 AM 55.4 °F 50.0 °F 82% 30.39 in 5.0 mi Calm Calm - N/A   Light Drizzle
8:35 AM 53.6 °F 51.8 °F 94% 30.39 in 2.0 mi Calm Calm - 0.01 in Rain Rain
8:55 AM 53.6 °F 51.8 °F 94% 30.39 in 4.0 mi Calm Calm - 0.02 in Rain Rain
9:15 AM 55.4 °F 53.6 °F 94% 30.40 in 4.0 mi Calm Calm - N/A Rain Light Rain
9:35 AM 55.4 °F 53.6 °F 94% 30.39 in 5.0 mi Calm Calm - N/A   Light Drizzle
9:55 AM 55.4 °F 53.6 °F 94% 30.40 in 5.0 mi Calm Calm - 0.01 in   Mist
10:15 AM 55.4 °F 53.6 °F 94% 30.40 in 3.0 mi Calm Calm - 0.01 in Rain Light Rain
10:35 AM 55.4 °F 53.6 °F 94% 30.40 in 4.0 mi Calm Calm - 0.02 in   Drizzle
10:55 AM 57.2 °F 55.4 °F 94% 30.40 in 1.0 mi Calm Calm - 0.09 in Rain Heavy Rain
11:15 AM 57.2 °F 55.4 °F 94% 30.40 in 5.0 mi Calm Calm - 0.01 in Rain Light Rain
11:35 AM 57.2 °F 57.2 °F 100% 30.39 in 5.0 mi Calm Calm - 0.01 in   Mist
11:55 AM 57.2 °F 57.2 °F 100% 30.39 in 4.0 mi Calm Calm - 0.01 in   Mist
12:15 PM 59.0 °F 57.2 °F 94% 30.38 in 4.0 mi Calm Calm - N/A   Mist
12:35 PM 59.0 °F 57.2 °F 94% 30.37 in 4.0 mi Calm Calm - N/A   Mist
12:55 PM 57.2 °F 55.4 °F 94% 30.36 in 4.0 mi Calm Calm - N/A   Mist
1:15 PM 57.2 °F 55.4 °F 94% 30.36 in 4.0 mi Calm Calm - N/A   Mist
1:35 PM 57.2 °F 55.4 °F 94% 30.35 in 5.0 mi NNW 3.5 mph - N/A   Mist
1:55 PM 57.2 °F 55.4 °F 94% 30.34 in 4.0 mi Calm Calm - N/A   Mist
2:15 PM 59.0 °F 57.2 °F 94% 30.34 in 4.0 mi NNW 3.5 mph - N/A   Mist
2:35 PM 57.2 °F 55.4 °F 94% 30.33 in 4.0 mi Calm Calm - N/A   Mist
2:55 PM 59.0 °F 57.2 °F 94% 30.32 in 5.0 mi Calm Calm - N/A   Mist
3:15 PM 59.0 °F 57.2 °F 94% 30.32 in 5.0 mi Calm Calm - N/A   Mist
3:35 PM 57.2 °F 55.4 °F 94% 30.33 in 3.0 mi Calm Calm - N/A   Mist
3:55 PM 59.0 °F 57.2 °F 94% 30.32 in 2.5 mi Calm Calm - N/A   Mist
4:15 PM 59.0 °F 57.2 °F 94% 30.32 in 2.5 mi Calm Calm - N/A   Mist
4:35 PM 59.0 °F 57.2 °F 94% 30.32 in 3.0 mi Calm Calm - N/A   Mist
4:55 PM 57.2 °F 55.4 °F 94% 30.33 in 3.0 mi Calm Calm - N/A   Mist
5:15 PM 57.2 °F 55.4 °F 94% 30.33 in 3.0 mi Calm Calm - N/A   Light Drizzle
5:35 PM 57.2 °F 55.4 °F 94% 30.33 in 3.0 mi Calm Calm - N/A   Overcast
5:55 PM 57.2 °F 55.4 °F 94% 30.32 in 4.0 mi North 4.6 mph - N/A   Mist
6:15 PM 57.2 °F 55.4 °F 94% 30.33 in 4.0 mi North 6.9 mph - N/A   Mist
6:35 PM 57.2 °F 55.4 °F 94% 30.33 in 4.0 mi North 4.6 mph - N/A   Mist
6:55 PM 55.4 °F 55.4 °F 100% 30.34 in 4.0 mi North 3.5 mph - N/A   Mist
7:15 PM 55.4 °F 55.4 °F 100% 30.34 in 4.0 mi North 4.6 mph - N/A   Mist
7:35 PM 55.4 °F 55.4 °F 100% 30.35 in 3.0 mi NNW 5.8 mph - N/A   Mist
7:55 PM 55.4 °F 55.4 °F 100% 30.36 in 2.5 mi NNW 4.6 mph - N/A   Mist
8:15 PM 55.4 °F 55.4 °F 100% 30.35 in 2.0 mi NNW 3.5 mph - N/A   Mist
8:35 PM 55.4 °F 53.6 °F 94% 30.35 in 1.5 mi North 4.6 mph - N/A   Mist
8:55 PM 55.4 °F 53.6 °F 94% 30.36 in 1.2 mi NNW 3.5 mph - N/A   Mist
9:15 PM 55.4 °F 53.6 °F 94% 30.36 in 1.0 mi NNW 3.5 mph - N/A   Mist
9:35 PM 55.4 °F 55.4 °F 100% 30.37 in 1.8 mi Calm Calm - N/A   Mist
9:55 PM 55.4 °F 55.4 °F 100% 30.36 in 4.0 mi North 3.5 mph - N/A   Mist
10:15 PM 55.4 °F 53.6 °F 94% 30.37 in 4.0 mi North 4.6 mph - N/A   Mist
10:35 PM 55.4 °F 53.6 °F 94% 30.37 in 4.0 mi North 6.9 mph - N/A   Mist
10:55 PM 55.4 °F 53.6 °F 94% 30.37 in 2.5 mi North 4.6 mph - N/A   Mist
11:15 PM 55.4 °F 53.6 °F 94% 30.37 in 1.5 mi North 4.6 mph - N/A   Mist
11:35 PM 55.4 °F 53.6 °F 94% 30.36 in 1.2 mi North 4.6 mph - N/A   Mist
11:55 PM 55.4 °F 53.6 °F 94% 30.35 in 1.8 mi NNE 5.8 mph - N/A   Mist